Change the Weather History Date:

Sunday, March 3, 2013

  Actual Average Record
Temperature  
Mean Temperature 66 °F -  
Max Temperature 73 °F 83 °F 87 °F (1997)
Min Temperature 59 °F 71 °F 59 °F (2013)
Cooling Degree Days 1    
Growing Degree Days 16 (Base 50)    
Moisture  
Dew Point 45 °F    
Average Humidity 50    
Maximum Humidity 72    
Minimum Humidity 33    
Precipitation  
Precipitation 0.00 in - - ()
Sea Level Pressure  
Sea Level Pressure 30.16 in    
Wind  
Wind Speed 15 mph ()    
Max Wind Speed 24 mph    
Max Gust Speed 29 mph    
Visibility 7.8 miles    
Events      
Averages and records for this station are not official NWS values.
T = Trace of Precipitation, MM = Missing Value Source: Averaged Metar Reports

Daily Weather History Graph

Daily Weather History Graph

Search for Another Location

Airport or City:

Trip Planner

Search our weather history database for the weather conditions in past years. The results will help you decide how hot, cold, wet, or windy it might be!

Date:

Astronomy

Mar. 03, 2013 Rise Set
Actual Time 6:06 AM CST 5:53 PM CST
Civil Twilight 5:43 AM CST 6:15 PM CST
Nautical Twilight 5:18 AM CST 6:41 PM CST
Astronomical Twilight 4:52 AM CST 7:06 PM CST
Moon 11:43 PM CST (3/3) 10:11 AM CST (3/3)
Length of Visible Light 12h 31m
Length of Day
11h 47m
Waning Gibbous, 63% of the Moon is Illuminated
Mar 3
Waning Gibbous
Mar 4
Last Quarter
Mar 11
New
Mar 19
First Quarter
Mar 27
Full

Hourly Weather History & Observations

Time (CST) Temp. Dew Point Humidity Pressure Visibility Wind Dir Wind Speed Gust Speed Precip Events Conditions
1:28 AM 62.6 °F 44.6 °F 52% 30.14 in 7.0 mi WNW 19.6 mph - N/A   Partly Cloudy
1:40 AM 62.6 °F 44.6 °F 52% 30.14 in 7.0 mi West 11.5 mph 23.0 mph N/A   Partly Cloudy
2:41 AM 62.6 °F 48.2 °F 59% 30.15 in 7.0 mi WNW 17.3 mph 28.8 mph N/A   Partly Cloudy
4:39 AM 59.0 °F 48.2 °F 67% 30.12 in 7.0 mi West 20.7 mph - N/A   Partly Cloudy
4:44 AM 59.0 °F 48.2 °F 67% 30.13 in 7.0 mi WNW 17.3 mph - N/A   Partly Cloudy
5:47 AM 59.0 °F 50.0 °F 72% 30.11 in 7.0 mi WNW 20.7 mph - N/A   Partly Cloudy
6:42 AM 60.8 °F 46.4 °F 59% 30.15 in 8.0 mi NW 23.0 mph - N/A   Scattered Clouds
7:40 AM 62.6 °F 46.4 °F 55% 30.18 in 8.0 mi NW 24.2 mph - N/A   Mostly Cloudy
8:40 AM 64.4 °F 46.4 °F 52% 30.23 in 8.0 mi NW 20.7 mph - N/A   Scattered Clouds
9:42 AM 66.2 °F 44.6 °F 46% 30.21 in 8.0 mi WNW 16.1 mph - N/A   Scattered Clouds
10:42 AM 68.0 °F 46.4 °F 46% 30.20 in 8.0 mi NW 19.6 mph - N/A   Scattered Clouds
11:53 AM 71.6 °F 46.4 °F 41% 30.14 in 8.0 mi NNW 11.5 mph 23.0 mph N/A   Mostly Cloudy
12:48 PM 71.6 °F 41.0 °F 33% 30.15 in 8.0 mi NNW 18.4 mph - N/A   Scattered Clouds
1:46 PM 71.6 °F 42.8 °F 35% 30.14 in 8.0 mi NNW 16.1 mph - N/A   Mostly Cloudy
2:40 PM 73.4 °F 46.4 °F 38% 30.16 in 8.0 mi NNW 16.1 mph - N/A   Mostly Cloudy
3:40 PM 71.6 °F 42.8 °F 35% 30.13 in 8.0 mi NNW 13.8 mph - N/A   Mostly Cloudy
4:40 PM 69.8 °F 42.8 °F 38% 30.14 in 8.0 mi North 17.3 mph - N/A   Partly Cloudy
5:41 PM 66.2 °F 46.4 °F 49% 30.12 in 8.0 mi North 17.3 mph - N/A   Partly Cloudy
6:40 PM 62.6 °F 42.8 °F 48% 30.18 in 8.0 mi North 11.5 mph 24.2 mph N/A   Partly Cloudy
7:40 PM 62.6 °F 42.8 °F 48% 30.20 in 8.0 mi North 17.3 mph - N/A   Clear
8:40 PM 62.6 °F 44.6 °F 52% 30.24 in 8.0 mi North 15.0 mph - N/A   Clear
9:41 PM 60.8 °F 42.8 °F 52% 30.02 in 8.0 mi North 13.8 mph - N/A   Clear
10:43 PM 60.8 °F 46.4 °F 59% 30.22 in 8.0 mi North 10.4 mph - N/A   Clear
11:47 PM 60.8 °F 42.8 °F 52% 30.18 in 8.0 mi North 6.9 mph - N/A   Clear